Regional Weather Roundup
Issued by NWS Kansas City/Pleasant Hill, MO

Home | Current Version | Previous Version | Graphics & Text | Print | Product List | Glossary Off
Versions: 1 2 3 4 5 6 7 8 9 10 11 12 13 14 15 16 17 18 19 20 21 22 23 24 25 26 27 28 29 30 31 32 33 34 35 36 37 38 39 40 41 42 43 44 45 46 47 48 49 50

000
ASUS43 KEAX 280204
RWREAX

WEATHER ROUNDUP FOR EASTERN KANSAS AND NORTHWEST MISSOURI
NATIONAL WEATHER SERVICE KANSAS CITY/PLEASANT HILL MO
900 PM CDT FRI MAR 27 2015

KSZ040-057-103>105-MOZ028-029-037-043-280300-
...KANSAS CITY METROPOLITAN AREA...

CITY           SKY/WX    TMP DP  RH WIND       PRES   REMARKS
K.C. INTL      CLOUDY    39  20  46 CALM      30.15F
K.C. DOWNTOWN  CLOUDY    42  18  37 W6        30.17R
LEES SUMMIT    CLOUDY    41  18  39 NE6       30.17R
OLATHE - IXD   CLOUDY    40  23  50 NE3       30.16F
OLATHE - OJC   CLOUDY    41  20  43 CALM      30.15S
LAWRENCE       CLOUDY    40  23  50 E5        30.15F

$$

MOZ001>008-011>017-020>025-030>033-038>040-044>046-053-054-280300-
...NORTHERN AND CENTRAL MISSOURI...

CITY           SKY/WX    TMP DP  RH WIND       PRES   REMARKS
ST. JOSEPH     CLOUDY    38  23  55 W3        30.16F
MOSBY          CLOUDY    41  19  42 CALM      30.17S
WARRENSBURG    CLOUDY    39  21  48 CALM      30.18R
WHITEMAN AFB   CLOUDY    40  24  54 NE2       30.17R
CLINTON        CLOUDY    41  27  56 E3        30.18S
SEDALIA        CLOUDY    41  25  53 N3        30.18R
WARSAW         NOT AVBL
MARSHALL       CLOUDY    43  23  45 CALM      30.19R
CHILLICOTHE      N/A     41  19  41 CALM      30.18R
MOBERLY        CLOUDY    39  23  52 CALM      30.18R
KIRKSVILLE     CLOUDY    34  18  52 NE3       30.17R

$$

MOZ041-047>049-056>058-063>065-088>090-097-280300-
...EASTERN AND SOUTHERN MISSOURI...

CITY           SKY/WX    TMP DP  RH WIND       PRES   REMARKS
ST. LOUIS INTL PTCLDY    38  19  46 NE5       30.18R WCI  34
SPIRIT OF STL  PTCLDY    32  25  75 CALM      30.17R
COLUMBIA       CLOUDY    38  24  57 CALM      30.17R
JEFFERSON CITY CLOUDY    40  20  44 CALM      30.18R
MEXICO         CLOUDY    37  30  75 N3        30.16R
HANNIBAL       MOCLDY    36  10  35 CALM      30.18R
ROLLA          CLOUDY    36  23  59 CALM      30.15R
LEBANON        CLOUDY    41  21  45 CALM      30.16R
OSAGE BEACH    CLOUDY    39  19  45 CALM      30.17R
SPRINGFIELD    CLOUDY    41  23  48 NW6       30.16R
NEVADA         CLOUDY    41  23  48 NE3       30.18R
JOPLIN         CLOUDY    45  25  45 CALM      30.17R
WEST PLAINS    MOCLDY    40  19  43 CALM      30.15R

$$

IAZ060-094-KSZ022-034>040-054-083-096-NEZ052-066-093-280300-
...KANSAS...SOUTHEAST NEBRASKA AND IOWA...

CITY           SKY/WX    TMP DP  RH WIND       PRES   REMARKS
TOPEKA         CLOUDY    41  22  46 E8        30.15F
MANHATTAN      CLOUDY    41  21  44 E6        30.09F
EMPORIA        CLOUDY    42  22  44 SE5       30.11F
CHANUTE        CLOUDY    46  20  35 NE3       30.15S
WICHITA        MOCLDY    44  29  55 S8        30.09F
OMAHA          CLOUDY    37  17  44 SE8       30.12F WCI  31
LINCOLN        CLOUDY    38  23  55 E10       30.11F WCI  31
FALLS CITY     CLOUDY    37  24  59 E6        30.14S WCI  32
LAMONI         CLOUDY    37  18  46 CALM      30.14S
DES MOINES     CLOUDY    38   8  29 SE5       30.16S WCI  34

$$




USA.gov is the U.S. government's official web portal to all federal, state and local government web resources and services.